FW1921 Weather Reports


time (UTC)temp
C
wind
direction
speed
KPH
gust
KPH
rain 1hr
cm
rain 24hr
cm
rain mn
cm
humidity
%
barometer
mb
20260508034038 10 314 8.0 14.5 0.00 0.13 0.08 58 1015.4
20260508033536 10 323 6.4 14.5 0.00 0.13 0.08 58 1015.4
20260508033039 10 333 6.4 16.1 0.00 0.13 0.08 58 1015.5
20260508032541 10 304 6.4 17.7 0.00 0.13 0.08 58 1015.5
20260508032037 10 319 8.0 17.7 0.00 0.13 0.08 58 1015.4
20260508031546 10 337 6.4 12.9 0.00 0.13 0.08 58 1015.3
20260508031034 10 335 4.8 12.9 0.00 0.13 0.08 59 1015.3
20260508030534 10 333 4.8 9.7 0.00 0.13 0.08 58 1015.3
20260508030040 10 316 4.8 9.7 0.00 0.13 0.08 59 1015.2
20260508025531 10 280 4.8 11.3 0.00 0.25 0.08 58 1015.1
20260508025031 10 319 4.8 11.3 0.00 0.25 0.08 58 1015.0
20260508024531 10 335 4.8 11.3 0.00 0.25 0.08 58 1015.0
20260508024030 11 323 3.2 9.7 0.00 0.25 0.08 59 1015.0
20260508023528 11 335 4.8 11.3 0.00 0.25 0.08 58 1014.9
20260508023038 11 340 6.4 14.5 0.00 0.25 0.08 58 1014.7
20260508022527 11 315 6.4 14.5 0.00 0.25 0.08 57 1014.7
20260508022027 11 309 6.4 12.9 0.00 0.25 0.08 57 1014.5
20260508021532 11 315 6.4 14.5 0.00 0.25 0.08 57 1014.5
20260508021025 11 316 8.0 16.1 0.00 0.25 0.08 57 1014.5
20260508020525 11 298 8.0 16.1 0.00 0.25 0.08 57 1014.4
20260508020024 11 316 8.0 16.1 0.00 0.25 0.08 57 1014.3
20260508015523 11 304 8.0 16.1 0.00 0.25 0.08 57 1014.2
20260508015023 11 319 6.4 14.5 0.00 0.25 0.08 58 1014.1
20260508014525 11 283 8.0 16.1 0.00 0.25 0.08 57 1014.1
20260508014022 11 293 8.0 17.7 0.00 0.25 0.08 58 1014.0
20260508013524 11 288 9.7 19.3 0.00 0.25 0.08 58 1013.9
20260508013023 11 313 8.0 19.3 0.00 0.25 0.08 59 1013.8
20260508012520 11 300 6.4 19.3 0.00 0.25 0.08 59 1013.7
20260508012022 12 345 8.0 19.3 0.00 0.25 0.08 59 1013.6
20260508011521 12 288 9.7 19.3 0.00 0.25 0.08 57 1013.5
20260508011020 12 335 6.4 16.1 0.00 0.25 0.08 58 1013.4
20260508010520 12 321 8.0 17.7 0.00 0.25 0.08 58 1013.3
20260508010035 12 335 8.0 19.3 0.00 0.25 0.08 58 1013.3
20260508005520 12 331 9.7 19.3 0.00 0.25 0.08 58 1013.2
20260508005019 12 286 8.0 14.5 0.00 0.25 0.08 60 1012.9
20260508004523 12 311 6.4 14.5 0.00 0.25 0.08 60 1012.9
20260508004019 12 289 8.0 14.5 0.00 0.25 0.08 60 1012.8
20260508003521 12 324 8.0 14.5 0.00 0.25 0.08 59 1012.9
20260508003021 12 311 6.4 19.3 0.00 0.25 0.08 60 1012.9
20260508002518 12 300 9.7 19.3 0.00 0.25 0.08 59 1012.8
20260508002018 12 266 9.7 20.9 0.00 0.25 0.08 59 1012.8
20260508001526 12 291 8.0 19.3 0.00 0.25 0.08 61 1012.7
20260508001018 12 270 9.7 19.3 0.00 0.25 0.08 61 1012.7
20260508000516 12 316 6.4 16.1 0.00 0.25 0.08 65 1012.4
20260508000020 13 305 8.0 14.5 0.00 0.25 0.08 65 1012.3
20260507235516 13 290 6.4 16.1 0.00 0.25 0.08 70 1012.0
20260507235014 13 333 4.8 16.1 0.00 0.25 0.08 74 1011.9
20260507234512 13 287 4.8 11.3 0.00 0.25 0.08 80 1011.9
20260507234012 13 269 1.6 6.4 0.00 0.25 0.08 83 1011.8
20260507233512 14 337 1.6 4.8 0.00 0.25 0.08 83 1011.8
20260507233012 14 326 1.6 4.8 0.00 0.25 0.08 84 1011.7
20260507232513 14 337 1.6 8.0 0.00 0.25 0.08 83 1011.7
20260507232017 14 321 3.2 8.0 0.00 0.25 0.08 83 1011.6
20260507231512 14 243 1.6 9.7 0.00 0.25 0.08 83 1011.4
20260507231012 14 300 3.2 11.3 0.00 0.25 0.08 83 1011.3
20260507230512 14 206 1.6 11.3 0.00 0.25 0.08 82 1011.3
20260507230012 14 269 3.2 11.3 0.00 0.25 0.08 82 1011.2
20260507225511 15 108 4.8 11.3 0.00 0.25 0.08 81 1011.1
20260507225011 15 219 3.2 14.5 0.00 0.25 0.08 82 1011.2
20260507224512 15 220 1.6 14.5 0.00 0.25 0.08 82 1011.1
20260507224010 15 286 3.2 9.7 0.00 0.25 0.08 82 1011.1
20260507223510 15 231 3.2 11.3 0.00 0.25 0.08 81 1011.1
20260507223011 15 314 3.2 11.3 0.00 0.25 0.08 82 1011.0
20260507222510 15 141 3.2 12.9 0.00 0.25 0.08 81 1010.9
20260507222009 15 202 4.8 12.9 0.00 0.25 0.08 81 1011.0
20260507221515 15 140 3.2 11.3 0.00 0.25 0.08 82 1010.8
20260507221010 15 229 3.2 11.3 0.00 0.25 0.08 82 1010.8
20260507220514 15 131 3.2 11.3 0.00 0.25 0.08 82 1010.6
20260507220010 14 86 3.2 9.7 0.00 0.25 0.08 83 1010.7
20260507215510 14 304 1.6 8.0 0.00 0.25 0.08 83 1010.6
20260507215009 14 260 1.6 12.9 0.00 0.25 0.08 82 1010.6
20260507214508 15 113 4.8 12.9 0.00 0.25 0.08 81 1010.5
20260507214008 15 93 3.2 12.9 0.00 0.25 0.08 82 1010.5
20260507213509 15 140 3.2 12.9 0.00 0.25 0.08 82 1010.4
20260507213018 14 206 4.8 12.9 0.00 0.25 0.08 83 1010.5
20260507212507 14 147 3.2 11.3 0.00 0.25 0.08 83 1010.5
20260507212107 14 215 1.6 11.3 0.00 0.25 0.08 83 1010.5
20260507211508 14 250 1.6 9.7 0.00 0.25 0.08 83 1010.5
20260507211008 14 275 3.2 8.0 0.00 0.25 0.08 82 1010.6
20260507210512 14 250 1.6 6.4 0.00 0.25 0.08 83 1010.4
20260507210022 14 159 1.6 6.4 0.00 0.25 0.08 83 1010.5
20260507205507 14 215 1.6 9.7 0.00 0.25 0.08 83 1010.6
20260507205007 15 159 1.6 8.0 0.00 0.25 0.08 83 1010.4
20260507204506 15 238 1.6 12.9 0.00 0.25 0.08 81 1010.5
20260507204008 15 95 1.6 14.5 0.00 0.25 0.08 83 1010.4
20260507203506 15 304 4.8 14.5 0.00 0.25 0.08 80 1010.6
20260507203013 15 229 4.8 14.5 0.00 0.25 0.08 80 1010.5
20260507202505 15 215 3.2 9.7 0.00 0.25 0.08 83 1010.5
20260507202004 15 30 1.6 9.7 0.00 0.25 0.08 84 1010.4
20260507201513 14 44 1.6 9.7 0.00 0.25 0.08 84 1010.6
20260507201007 14 86 1.6 11.3 0.00 0.25 0.08 84 1010.7
20260507200503 14 199 3.2 11.3 0.00 0.25 0.08 83 1010.8
20260507200015 13 133 3.2 12.9 0.00 0.25 0.08 84 1010.9
20260507195504 13 147 3.2 9.7 0.00 0.25 0.08 83 1010.9
20260507195007 14 233 1.6 11.3 0.00 0.25 0.08 83 1010.8
20260507194503 14 142 4.8 11.3 0.00 0.25 0.08 82 1011.0
20260507194001 14 229 3.2 11.3 0.00 0.25 0.08 83 1011.2
20260507193503 14 244 3.2 9.7 0.00 0.25 0.08 84 1011.2
20260507193004 14 145 3.2 8.0 0.00 0.25 0.08 86 1011.4
20260507192559 13 191 1.6 8.0 0.00 0.25 0.08 86 1011.5
20260507192104 13 143 1.6 9.7 0.00 0.25 0.08 86 1011.5
20260507191608 13 245 3.2 9.7 0.00 0.25 0.08 84 1011.6
20260507191100 13 172 1.6 11.3 0.00 0.25 0.08 84 1011.5
20260507190557 13 39 3.2 11.3 0.00 0.25 0.08 86 1011.7
20260507190057 13 70 1.6 6.4 0.00 0.25 0.08 87 1011.4
20260507185556 12 101 1.6 6.4 0.00 0.25 0.08 87 1011.5
20260507185054 12 1 1.6 6.4 0.00 0.25 0.08 87 1011.8
20260507184555 12 162 1.6 6.4 0.00 0.25 0.08 89 1011.9
20260507184057 12 152 1.6 8.0 0.00 0.25 0.08 90 1011.7
20260507183552 12 131 1.6 8.0 0.00 0.25 0.08 90 1011.8
20260507183100 11 1 0.0 3.2 0.00 0.25 0.08 89 1011.8
20260507182552 11 1 0.0 4.8 0.00 0.25 0.08 90 1011.7
20260507182051 11 70 1.6 4.8 0.00 0.25 0.08 90 1011.8
20260507181552 11 311 0.0 3.2 0.00 0.25 0.08 90 1011.9
20260507181050 11 1 0.0 3.2 0.00 0.25 0.08 89 1011.9
20260507180551 11 147 0.0 3.2 0.00 0.25 0.08 89 1011.8
20260507180050 11 131 0.0 3.2 0.00 0.25 0.08 90 1011.9
20260507175555 11 155 0.0 3.2 0.00 0.25 0.08 90 1012.0
20260507175052 10 159 0.0 4.8 0.00 0.25 0.08 89 1012.0
20260507174549 10 101 0.0 4.8 0.00 0.25 0.08 89 1012.0
20260507174048 10 105 1.6 4.8 0.00 0.25 0.08 89 1012.1
20260507173550 10 124 1.6 6.4 0.00 0.25 0.08 89 1012.2
20260507173118 10 79 1.6 6.4 0.00 0.25 0.08 90 1012.5
20260507172548 10 44 0.0 8.0 0.00 0.25 0.08 90 1012.4
20260507172047 10 147 3.2 8.0 0.00 0.25 0.08 90 1012.4
20260507171549 10 123 1.6 8.0 0.00 0.25 0.08 90 1012.5
20260507171048 10 86 3.2 9.7 0.00 0.25 0.08 90 1012.5
20260507170551 10 216 1.6 11.3 0.00 0.25 0.08 90 1012.6
20260507170049 10 54 8.0 11.3 0.00 0.25 0.08 90 1012.5
20260507165546 10 109 1.6 8.0 0.00 0.25 0.08 90 1012.7
20260507165045 10 86 3.2 8.0 0.00 0.25 0.08 90 1012.6
20260507164553 10 109 1.6 9.7 0.00 0.25 0.08 90 1013.1
20260507164046 10 122 3.2 9.7 0.00 0.25 0.08 90 1013.1
20260507163546 9 100 4.8 9.7 0.00 0.25 0.08 90 1012.8
20260507163045 9 81 3.2 9.7 0.00 0.25 0.08 90 1013.1
20260507162545 9 111 4.8 9.7 0.00 0.25 0.08 90 1013.0
20260507162045 9 56 6.4 9.7 0.00 0.25 0.08 90 1013.1
20260507161553 9 95 4.8 11.3 0.00 0.25 0.08 90 1013.0
20260507161045 9 79 6.4 11.3 0.00 0.25 0.08 90 1013.2
20260507160544 9 59 6.4 11.3 0.00 0.25 0.08 90 1013.2
20260507160100 9 77 4.8 19.3 0.03 0.25 0.08 90 1013.5
20260507155543 9 70 6.4 19.3 0.03 0.25 0.08 90 1013.2
20260507155045 9 64 9.7 16.1 0.03 0.25 0.08 90 1013.1
20260507154545 9 68 8.0 17.7 0.03 0.25 0.08 90 1013.3
20260507154043 8 72 9.7 17.7 0.03 0.25 0.08 90 1013.4
20260507153542 8 61 6.4 12.9 0.05 0.25 0.08 90 1013.4
20260507153043 8 86 6.4 14.5 0.05 0.25 0.08 90 1013.4
20260507152541 8 77 9.7 16.1 0.05 0.25 0.08 90 1013.4
20260507152041 8 46 6.4 17.7 0.08 0.25 0.08 90 1013.5
20260507151543 8 65 8.0 17.7 0.08 0.25 0.08 90 1013.5
20260507151039 8 58 11.3 16.1 0.08 0.25 0.08 89 1013.4
20260507150545 8 99 9.7 14.5 0.08 0.25 0.08 90 1013.6
20260507150039 9 82 4.8 16.1 0.05 0.23 0.05 90 1013.7
20260507145539 8 103 8.0 17.7 0.05 0.23 0.05 90 1013.3
20260507145039 8 59 8.0 17.7 0.05 0.23 0.05 89 1013.2
20260507144547 8 65 9.7 16.1 0.05 0.23 0.05 88 1013.4
20260507144036 9 102 6.4 12.9 0.05 0.23 0.05 89 1013.8
20260507143535 9 113 4.8 14.5 0.03 0.20 0.03 88 1013.5
20260507143035 9 60 6.4 14.5 0.03 0.20 0.03 88 1013.1
20260507142535 9 65 8.0 14.5 0.03 0.20 0.03 88 1013.2
20260507142036 9 64 6.4 14.5 0.00 0.18 0.00 88 1013.4
20260507141534 9 86 8.0 14.5 0.00 0.18 0.00 87 1013.5
20260507141034 9 60 9.7 14.5 0.00 0.18 0.00 87 1013.5
20260507140535 9 90 8.0 14.5 0.00 0.18 0.00 87 1013.5
20260507140035 9 70 6.4 16.1 0.00 0.18 0.00 87 1013.6
20260507135532 9 70 9.7 16.1 0.00 0.25 0.00 87 1013.7
20260507135031 9 81 9.7 16.1 0.00 0.25 0.00 87 1013.7
20260507134531 9 57 8.0 16.1 0.00 0.25 0.00 87 1013.7
20260507134034 9 49 8.0 14.5 0.00 0.25 0.00 87 1013.9
20260507133530 10 64 9.7 14.5 0.00 0.25 0.00 88 1013.7
20260507133030 10 81 8.0 14.5 0.00 0.25 0.00 88 1013.7
20260507132528 10 102 8.0 14.5 0.00 0.25 0.00 88 1013.6
20260507132028 10 77 8.0 14.5 0.00 0.25 0.00 88 1013.6
20260507131530 10 57 8.0 14.5 0.00 0.25 0.00 88 1013.7
20260507131028 10 52 8.0 12.9 0.00 0.25 0.00 88 1013.6
20260507130528 10 47 8.0 16.1 0.00 0.25 0.00 88 1013.7
20260507130032 10 33 9.7 16.1 0.00 0.25 0.00 88 1013.6
20260507125526 10 49 6.4 12.9 0.00 0.30 0.00 89 1013.6
20260507125028 10 77 8.0 12.9 0.00 0.30 0.00 89 1013.6
20260507124525 10 65 6.4 12.9 0.00 0.30 0.00 89 1013.5
20260507124024 10 49 8.0 12.9 0.00 0.30 0.00 89 1013.4
20260507123523 10 74 8.0 14.5 0.00 0.30 0.00 89 1013.5
20260507123032 10 63 8.0 14.5 0.00 0.30 0.00 89 1013.4
20260507122522 10 70 8.0 16.1 0.00 0.30 0.00 89 1013.4
20260507122024 10 53 9.7 16.1 0.00 0.30 0.00 89 1013.4
20260507121522 10 32 6.4 12.9 0.00 0.30 0.00 89 1013.4
20260507121021 10 68 8.0 14.5 0.00 0.30 0.00 88 1013.2
20260507120521 10 52 8.0 14.5 0.00 0.30 0.00 89 1013.5
20260507120020 10 42 8.0 12.9 0.00 0.30 0.00 89 1013.4
20260507115520 10 50 6.4 12.9 0.00 0.33 0.00 89 1013.3
20260507115019 10 75 8.0 14.5 0.00 0.33 0.00 89 1013.3
20260507114519 10 58 8.0 14.5 0.00 0.33 0.00 89 1013.0
20260507114018 10 65 8.0 14.5 0.00 0.33 0.00 89 1013.1
20260507113519 10 26 9.7 16.1 0.00 0.33 0.00 89 1013.2
20260507113025 10 60 9.7 17.7 0.00 0.33 0.00 89 1013.3
20260507112517 10 20 8.0 17.7 0.00 0.33 0.00 89 1013.2
20260507112017 10 27 11.3 17.7 0.00 0.33 0.00 90 1013.1
20260507111514 10 56 11.3 17.7 0.00 0.33 0.00 90 1013.0
20260507111013 10 32 9.7 14.5 0.00 0.33 0.00 91 1012.9
20260507110512 10 54 6.4 12.9 0.00 0.33 0.00 91 1013.0
20260507110013 10 58 8.0 12.9 0.00 0.33 0.00 91 1012.9
20260507105511 10 49 6.4 16.1 0.00 0.33 0.00 91 1012.8
20260507105010 10 44 6.4 16.1 0.00 0.33 0.00 91 1012.7
20260507104511 10 58 8.0 14.5 0.00 0.33 0.00 91 1012.4
20260507104008 10 33 6.4 17.7 0.00 0.33 0.00 91 1012.4
20260507103507 10 53 8.0 17.7 0.00 0.33 0.00 91 1012.3
20260507103006 10 70 8.0 17.7 0.00 0.33 0.00 90 1012.4
20260507102504 10 70 9.7 17.7 0.00 0.33 0.00 90 1012.3
20260507102006 11 131 4.8 12.9 0.00 0.33 0.00 90 1012.3
20260507101502 11 140 4.8 12.9 0.00 0.33 0.00 91 1012.3
20260507101002 11 72 4.8 9.7 0.00 0.33 0.00 91 1012.2
20260507100600 11 65 4.8 11.3 0.00 0.33 0.00 91 1012.2
20260507100058 11 64 6.4 12.9 0.00 0.33 0.00 90 1012.3
20260507095558 12 80 6.4 12.9 0.00 0.33 0.00 90 1012.1
20260507095056 12 65 4.8 11.3 0.00 0.33 0.00 90 1012.3
20260507094555 12 58 8.0 11.3 0.00 0.33 0.00 89 1012.3
20260507094053 12 60 6.4 11.3 0.00 0.33 0.00 88 1012.3
20260507093553 12 63 1.6 12.9 0.00 0.33 0.00 87 1012.4
20260507093056 12 51 4.8 12.9 0.00 0.33 0.00 87 1012.3
20260507092552 12 32 4.8 9.7 0.00 0.33 0.00 87 1012.2
20260507092049 13 1 4.8 8.0 0.00 0.33 0.00 87 1012.3
20260507091550 13 314 3.2 4.8 0.00 0.33 0.00 86 1011.9
20260507091049 13 1 1.6 4.8 0.00 0.33 0.00 87 1012.0
20260507090549 13 304 1.6 6.4 0.00 0.33 0.00 87 1012.2
20260507090048 13 159 0.0 6.4 0.00 0.33 0.00 87 1012.2
20260507085548 13 19 1.6 4.8 0.00 0.33 0.00 87 1012.4
20260507085048 13 304 0.0 4.8 0.00 0.33 0.00 87 1012.4
20260507084547 13 44 1.6 4.8 0.00 0.33 0.00 87 1012.6
20260507084046 13 242 0.0 3.2 0.00 0.33 0.00 87 1012.6
20260507083545 13 304 0.0 3.2 0.00 0.33 0.00 87 1012.4
20260507083047 13 131 0.0 4.8 0.00 0.33 0.00 86 1012.1
20260507082545 13 172 0.0 4.8 0.00 0.33 0.00 86 1012.0
20260507082045 13 260 1.6 4.8 0.00 0.33 0.00 86 1011.7
20260507081544 13 44 0.0 3.2 0.00 0.33 0.00 86 1011.8
20260507081043 13 172 0.0 4.8 0.00 0.33 0.00 86 1011.9
20260507080545 13 11 1.6 6.4 0.00 0.33 0.00 86 1012.0
20260507080044 13 216 1.6 6.4 0.00 0.33 0.00 86 1012.1
20260507075547 13 283 1.6 6.4 0.00 0.33 0.00 86 1012.1
20260507075043 13 304 3.2 9.7 0.00 0.33 0.00 86 1012.0
20260507074545 13 331 1.6 11.3 0.00 0.33 0.00 86 1012.0
20260507074043 13 282 3.2 11.3 0.00 0.33 0.00 87 1012.1
20260507073541 13 293 4.8 8.0 0.00 0.33 0.00 87 1011.9
20260507073041 13 319 3.2 9.7 0.00 0.33 0.00 87 1011.9
20260507072540 13 312 1.6 12.9 0.00 0.33 0.00 87 1012.1
20260507072040 13 314 1.6 12.9 0.00 0.33 0.00 87 1011.9
20260507071539 13 278 3.2 9.7 0.00 0.33 0.00 88 1012.1
20260507071040 13 321 4.8 12.9 0.00 0.33 0.00 88 1012.1
20260507070538 13 326 6.4 12.9 0.00 0.33 0.00 88 1011.9
20260507070038 13 311 1.6 4.8 0.00 0.33 0.00 89 1011.8
20260507065539 13 138 1.6 6.4 0.00 0.33 0.00 88 1011.5
20260507065035 13 172 0.0 8.0 0.00 0.33 0.00 88 1011.5
20260507064537 13 242 1.6 8.0 0.00 0.33 0.00 88 1011.8
20260507064035 13 233 1.6 8.0 0.00 0.33 0.00 88 1011.7
20260507063534 13 237 1.6 8.0 0.00 0.33 0.00 88 1011.8
20260507063034 13 304 0.0 17.7 0.00 0.33 0.00 88 1011.5
20260507062535 13 202 3.2 17.7 0.00 0.33 0.00 88 1011.6
20260507062033 13 61 3.2 16.1 0.00 0.33 0.00 88 1011.5
20260507061533 13 238 4.8 16.1 0.00 0.33 0.00 88 1011.7
20260507061032 14 20 4.8 14.5 0.00 0.33 0.00 89 1012.0
20260507060532 14 296 4.8 14.5 0.00 0.33 0.00 89 1012.1
20260507060037 14 268 4.8 16.1 0.00 0.33 0.00 89 1011.9
20260507055530 14 270 6.4 20.9 0.00 0.33 0.00 89 1012.2
20260507055028 14 312 4.8 20.9 0.00 0.33 0.00 89 1012.2
20260507054528 14 318 9.7 19.3 0.00 0.33 0.00 90 1012.4
20260507054029 14 288 8.0 19.3 0.00 0.33 0.00 90 1012.3
20260507053529 14 296 6.4 19.3 0.00 0.33 0.00 91 1012.3
20260507053025 15 233 8.0 17.7 0.00 0.33 0.00 91 1012.3
20260507052524 15 266 8.0 24.1 0.00 0.33 0.00 91 1012.2
20260507052023 15 302 9.7 24.1 0.00 0.33 0.00 91 1012.2
20260507051522 15 289 6.4 19.3 0.00 0.33 0.00 92 1012.2
20260507051020 15 318 3.2 8.0 0.00 0.33 0.00 92 1012.3
20260507050520 15 295 3.2 9.7 0.00 0.33 0.00 92 1011.9
20260507050020 15 301 3.2 8.0 0.00 0.33 0.00 92 1011.8
20260507045521 15 291 3.2 8.0 0.00 0.33 0.00 92 1011.7
20260507045018 15 278 3.2 8.0 0.00 0.33 0.00 92 1011.5
20260507044519 15 307 1.6 8.0 0.03 0.33 0.00 92 1011.2
20260507044018 15 304 0.0 4.8 0.03 0.33 0.00 92 1010.7
20260507043519 15 131 0.0 3.2 0.03 0.33 0.00 92 1010.6
20260507043017 16 131 0.0 3.2 0.03 0.33 0.00 92 1010.8
20260507042515 16 86 0.0 3.2 0.03 0.33 0.00 92 1011.1
20260507042014 16 321 0.0 8.0 0.03 0.33 0.00 92 1011.6
20260507041531 16 1 1.6 8.0 0.03 0.33 0.00 91 1011.9
20260507041014 16 216 1.6 6.4 0.05 0.33 0.00 91 1011.8
20260507040512 16 242 1.6 6.4 0.05 0.33 0.00 91 1012.4
20260507040011 16 229 1.6 9.7 0.05 0.33 0.00 91 1011.9
20260507035510 16 212 3.2 9.7 0.08 0.33 0.33 91 1012.0
20260507035012 16 283 3.2 9.7 0.08 0.33 0.33 91 1012.2
20260507034513 16 316 1.6 8.0 0.05 0.30 0.30 91 1012.0